| time (UTC) | temp F | wind direction | speed knots | gust knots | rain 1hr in | rain 24hr in | rain mn in | humidity % | barometer mb |
| 20260509193915 | 72 | 158 | 1.7 | 2.6 | 0.00 | 0.00 | 0.00 | 64 | 1012.1 |
| 20260509193337 | 72 | 23 | 1.7 | 3.5 | 0.00 | 0.00 | 0.00 | 64 | 1012.1 |
| 20260509192748 | 71 | 248 | 0.9 | 3.5 | 0.00 | 0.00 | 0.00 | 65 | 1012.1 |
| 20260509191528 | 70 | 293 | 1.7 | 2.6 | 0.00 | 0.00 | 0.00 | 66 | 1012.1 |
| 20260509190313 | 71 | 338 | 2.6 | 5.2 | 0.00 | 0.00 | 0.00 | 64 | 1012.1 |
| 20260509185750 | 71 | 225 | 2.6 | 3.5 | 0.00 | 0.00 | 0.00 | 65 | 1012.1 |
| 20260509185114 | 71 | 225 | 0.9 | 2.6 | 0.00 | 0.00 | 0.00 | 63 | 1012.1 |
| 20260509184531 | 71 | 0 | 2.6 | 3.5 | 0.00 | 0.00 | 0.00 | 63 | 1012.1 |
| 20260509183936 | 71 | 45 | 3.5 | 6.1 | 0.00 | 0.00 | 0.00 | 63 | 1012.1 |
| 20260509183343 | 73 | 293 | 3.5 | 5.2 | 0.00 | 0.00 | 0.00 | 60 | 1012.1 |
| 20260509182727 | 74 | 338 | 2.6 | 4.3 | 0.00 | 0.00 | 0.00 | 59 | 1012.1 |
| 20260509182153 | 74 | 158 | 1.7 | 1.7 | 0.00 | 0.00 | 0.00 | 59 | 1012.1 |
| 20260509181515 | 73 | 203 | 1.7 | 2.6 | 0.00 | 0.00 | 0.00 | 63 | 1012.1 |
| 20260509180942 | 70 | 225 | 2.6 | 3.5 | 0.00 | 0.00 | 0.00 | 64 | 1012.1 |
| 20260509180315 | 72 | 90 | 0.9 | 3.5 | 0.00 | 0.00 | 0.00 | 62 | 1012.1 |
| 20260509175737 | 72 | 180 | 3.5 | 4.3 | 0.00 | 0.00 | 0.00 | 60 | 1012.1 |
| 20260509175152 | 72 | 338 | 2.6 | 4.3 | 0.00 | 0.00 | 0.00 | 63 | 1012.5 |
| 20260509174526 | 71 | 225 | 2.6 | 2.6 | 0.00 | 0.00 | 0.00 | 64 | 1012.5 |
| 20260509173311 | 70 | 0 | 1.7 | 3.5 | 0.00 | 0.00 | 0.00 | 64 | 1012.5 |
| 20260509172726 | 70 | 203 | 2.6 | 2.6 | 0.00 | 0.00 | 0.00 | 65 | 1012.5 |
| 20260509171510 | 69 | 203 | 4.3 | 6.1 | 0.00 | 0.00 | 0.00 | 63 | 1012.5 |
| 20260509170921 | 70 | 270 | 2.6 | 3.5 | 0.00 | 0.00 | 0.00 | 63 | 1012.8 |
| 20260509170323 | 70 | 315 | 4.3 | 5.2 | 0.00 | 0.00 | 0.00 | 63 | 1012.8 |
| 20260509165719 | 72 | 270 | 1.7 | 4.3 | 0.00 | 0.00 | 0.00 | 60 | 1012.8 |
| 20260509165133 | 72 | 203 | 1.7 | 2.6 | 0.00 | 0.00 | 0.00 | 62 | 1012.8 |
| 20260509164539 | 70 | 293 | 1.7 | 1.7 | 0.00 | 0.00 | 0.00 | 63 | 1012.8 |
| 20260509163934 | 69 | 23 | 1.7 | 4.3 | 0.00 | 0.00 | 0.00 | 65 | 1012.8 |
| 20260509162115 | 68 | 113 | 1.7 | 1.7 | 0.00 | 0.00 | 0.00 | 67 | 1012.8 |
| 20260509161540 | 68 | 203 | 1.7 | 1.7 | 0.00 | 0.00 | 0.00 | 67 | 1012.8 |
| 20260509160930 | 68 | 248 | 0.9 | 5.2 | 0.00 | 0.00 | 0.00 | 66 | 1012.5 |
| 20260509160345 | 69 | 293 | 0.9 | 4.3 | 0.00 | 0.00 | 0.00 | 65 | 1012.5 |
| 20260509155716 | 68 | 23 | 1.7 | 5.2 | 0.00 | 0.00 | 0.00 | 65 | 1012.8 |
| 20260509154540 | 68 | 270 | 4.3 | 4.3 | 0.00 | 0.00 | 0.00 | 66 | 1012.5 |
| 20260509153940 | 68 | 135 | 3.5 | 3.5 | 0.00 | 0.00 | 0.00 | 66 | 1012.5 |
| 20260509153324 | 68 | 158 | 1.7 | 5.2 | 0.00 | 0.00 | 0.00 | 67 | 1012.5 |
| 20260509152128 | 68 | 270 | 1.7 | 4.3 | 0.00 | 0.00 | 0.00 | 67 | 1012.5 |
| 20260509150915 | 67 | 338 | 2.6 | 4.3 | 0.00 | 0.00 | 0.00 | 68 | 1012.5 |
| 20260509150315 | 67 | 23 | 2.6 | 2.6 | 0.00 | 0.00 | 0.00 | 69 | 1012.5 |
| 20260509145741 | 67 | 338 | 2.6 | 2.6 | 0.00 | 0.00 | 0.00 | 69 | 1012.5 |
| 20260509145127 | 66 | 23 | 1.7 | 2.6 | 0.00 | 0.00 | 0.00 | 70 | 1012.8 |
| 20260509144508 | 66 | 225 | 0.0 | 0.0 | 0.00 | 0.00 | 0.00 | 71 | 1012.5 |
| 20260509143907 | 66 | 180 | 0.0 | 0.0 | 0.00 | 0.00 | 0.00 | 71 | 1012.8 |
| 20260509142747 | 67 | 270 | 0.0 | 0.0 | 0.00 | 0.00 | 0.00 | 70 | 1012.5 |
| 20260509141517 | 67 | 270 | 0.0 | 0.0 | 0.00 | 0.00 | 0.00 | 68 | 1012.8 |
| 20260509140924 | 66 | 23 | 0.0 | 0.0 | 0.00 | 0.00 | 0.00 | 69 | 1012.8 |
| 20260509140344 | 66 | 315 | 0.0 | 0.0 | 0.00 | 0.00 | 0.00 | 70 | 1012.8 |
| 20260509135710 | 64 | 0 | 0.0 | 0.0 | 0.00 | 0.00 | 0.00 | 72 | 1012.8 |
| 20260509135112 | 64 | 338 | 0.0 | 0.0 | 0.00 | 0.00 | 0.00 | 74 | 1012.5 |
| 20260509134545 | 63 | 338 | 0.0 | 0.0 | 0.00 | 0.00 | 0.00 | 74 | 1012.5 |
| 20260509133914 | 64 | 248 | 0.0 | 0.0 | 0.00 | 0.00 | 0.00 | 75 | 1012.5 |
| 20260509132743 | 62 | 180 | 0.0 | 0.0 | 0.00 | 0.00 | 0.00 | 77 | 1012.1 |
| 20260509132132 | 62 | 203 | 0.0 | 0.0 | 0.00 | 0.00 | 0.00 | 78 | 1012.1 |
| 20260509131511 | 60 | 180 | 0.0 | 0.0 | 0.00 | 0.00 | 0.00 | 83 | 1012.5 |
| 20260509130917 | 57 | 203 | 0.0 | 0.0 | 0.00 | 0.00 | 0.00 | 86 | 1012.5 |
| 20260509130311 | 57 | 203 | 0.0 | 1.7 | 0.00 | 0.00 | 0.00 | 85 | 1012.5 |
| 20260509125721 | 57 | 203 | 0.0 | 0.0 | 0.00 | 0.00 | 0.00 | 86 | 1012.5 |
| 20260509125123 | 56 | 225 | 0.0 | 0.0 | 0.00 | 0.00 | 0.00 | 86 | 1012.5 |
| 20260509123935 | 55 | 180 | 0.0 | 0.0 | 0.00 | 0.00 | 0.00 | 88 | 1012.5 |
| 20260509123351 | 56 | 203 | 0.0 | 0.0 | 0.00 | 0.00 | 0.00 | 87 | 1012.8 |
| 20260509122746 | 54 | 203 | 0.0 | 0.0 | 0.00 | 0.00 | 0.00 | 90 | 1012.5 |
| 20260509122142 | 54 | 225 | 0.0 | 0.0 | 0.00 | 0.00 | 0.00 | 89 | 1012.5 |
| 20260509121510 | 54 | 180 | 0.0 | 0.0 | 0.00 | 0.00 | 0.00 | 91 | 1012.5 |
| 20260509120914 | 53 | 203 | 0.0 | 0.0 | 0.00 | 0.00 | 0.00 | 93 | 1012.8 |
| 20260509120320 | 52 | 203 | 0.0 | 0.0 | 0.00 | 0.00 | 0.00 | 94 | 1012.8 |
| 20260509115739 | 51 | 203 | 0.0 | 0.0 | 0.00 | 0.00 | 0.00 | 98 | 1012.8 |
| 20260509115122 | 50 | 225 | 0.0 | 0.0 | 0.00 | 0.00 | 0.00 | 99 | 1012.8 |
| 20260509113926 | 49 | 225 | 0.0 | 0.0 | 0.00 | 0.00 | 0.00 | 99 | 1012.8 |
| 20260509113325 | 48 | 203 | 0.0 | 0.0 | 0.00 | 0.00 | 0.00 | 99 | 1012.8 |
| 20260509112131 | 48 | 180 | 1.7 | 1.7 | 0.00 | 0.00 | 0.00 | 99 | 1012.8 |
| 20260509110934 | 47 | 180 | 0.0 | 0.9 | 0.00 | 0.00 | 0.00 | 99 | 1012.8 |
| 20260509110313 | 47 | 203 | 0.0 | 0.0 | 0.00 | 0.00 | 0.00 | 99 | 1012.8 |
| 20260509104545 | 47 | 338 | 0.9 | 0.9 | 0.00 | 0.00 | 0.00 | 99 | 1012.8 |
| 20260509103940 | 47 | 315 | 0.0 | 0.0 | 0.00 | 0.00 | 0.00 | 99 | 1012.8 |
| 20260509103314 | 46 | 270 | 0.0 | 0.0 | 0.00 | 0.00 | 0.00 | 99 | 1012.8 |
| 20260509102735 | 47 | 270 | 0.0 | 0.0 | 0.00 | 0.00 | 0.00 | 99 | 1012.8 |
| 20260509102123 | 46 | 248 | 0.0 | 0.0 | 0.00 | 0.00 | 0.00 | 99 | 1012.8 |
| 20260509101514 | 47 | 23 | 0.0 | 0.0 | 0.00 | 0.00 | 0.00 | 99 | 1012.8 |
| 20260509100920 | 47 | 315 | 0.0 | 0.0 | 0.00 | 0.00 | 0.00 | 99 | 1012.8 |
| 20260509100325 | 47 | 270 | 0.0 | 0.0 | 0.00 | 0.00 | 0.00 | 99 | 1012.5 |
| 20260509095736 | 47 | 248 | 0.0 | 0.0 | 0.00 | 0.00 | 0.00 | 99 | 1012.5 |
| 20260509095147 | 47 | 315 | 0.0 | 0.0 | 0.00 | 0.00 | 0.00 | 99 | 1012.5 |
| 20260509094533 | 47 | 270 | 0.0 | 0.0 | 0.00 | 0.00 | 0.00 | 99 | 1012.8 |
| 20260509093330 | 47 | 225 | 0.0 | 0.0 | 0.00 | 0.00 | 0.00 | 99 | 1012.8 |
| 20260509092117 | 47 | 315 | 0.0 | 0.0 | 0.00 | 0.00 | 0.00 | 99 | 1012.8 |
| 20260509090945 | 47 | 270 | 0.0 | 0.0 | 0.00 | 0.00 | 0.00 | 99 | 1012.8 |
| 20260509090350 | 47 | 270 | 0.0 | 0.0 | 0.00 | 0.00 | 0.00 | 99 | 1012.8 |
| 20260509085712 | 47 | 270 | 0.0 | 0.0 | 0.00 | 0.00 | 0.00 | 99 | 1012.8 |
| 20260509085139 | 47 | 338 | 0.0 | 0.0 | 0.00 | 0.00 | 0.00 | 99 | 1012.8 |
| 20260509084533 | 47 | 270 | 0.0 | 0.0 | 0.00 | 0.00 | 0.00 | 99 | 1012.8 |
| 20260509083918 | 47 | 23 | 0.0 | 0.0 | 0.00 | 0.00 | 0.00 | 99 | 1013.2 |
| 20260509083337 | 47 | 270 | 0.0 | 0.0 | 0.00 | 0.00 | 0.00 | 99 | 1012.8 |
| 20260509082748 | 47 | 270 | 0.0 | 0.0 | 0.00 | 0.00 | 0.00 | 99 | 1012.8 |
| 20260509080323 | 47 | 293 | 0.0 | 0.0 | 0.00 | 0.00 | 0.00 | 99 | 1013.2 |
| 20260509075754 | 47 | 270 | 0.0 | 0.0 | 0.00 | 0.00 | 0.00 | 99 | 1013.2 |
| 20260509075135 | 47 | 315 | 0.0 | 0.0 | 0.00 | 0.00 | 0.00 | 99 | 1013.2 |
| 20260509073323 | 47 | 270 | 0.0 | 0.0 | 0.00 | 0.00 | 0.00 | 99 | 1013.2 |
| 20260509072738 | 47 | 0 | 0.0 | 0.0 | 0.00 | 0.00 | 0.00 | 99 | 1013.2 |
| 20260509071519 | 47 | 315 | 0.0 | 0.0 | 0.00 | 0.00 | 0.00 | 99 | 1013.2 |
| 20260509070324 | 47 | 293 | 0.0 | 0.0 | 0.00 | 0.00 | 0.00 | 99 | 1013.2 |
| 20260509065751 | 46 | 270 | 0.0 | 0.0 | 0.00 | 0.00 | 0.00 | 99 | 1013.2 |
| 20260509064519 | 47 | 203 | 0.0 | 0.0 | 0.00 | 0.00 | 0.00 | 99 | 1012.8 |
| 20260509063914 | 46 | 225 | 0.0 | 0.0 | 0.00 | 0.00 | 0.00 | 99 | 1013.2 |
| 20260509063311 | 46 | 225 | 0.0 | 0.0 | 0.00 | 0.00 | 0.00 | 99 | 1013.2 |
| 20260509062719 | 47 | 225 | 0.0 | 0.0 | 0.00 | 0.00 | 0.00 | 99 | 1013.2 |
| 20260509062128 | 47 | 270 | 0.0 | 0.0 | 0.00 | 0.00 | 0.00 | 99 | 1013.2 |
| 20260509060912 | 47 | 293 | 0.0 | 0.0 | 0.00 | 0.00 | 0.00 | 99 | 1013.5 |
| 20260509060335 | 47 | 270 | 0.0 | 0.0 | 0.00 | 0.00 | 0.00 | 99 | 1013.5 |
| 20260509054513 | 47 | 338 | 0.0 | 0.0 | 0.00 | 0.00 | 0.00 | 99 | 1013.5 |
| 20260509053935 | 47 | 68 | 0.0 | 0.0 | 0.00 | 0.00 | 0.00 | 99 | 1013.5 |
| 20260509053347 | 47 | 225 | 0.0 | 0.0 | 0.00 | 0.00 | 0.00 | 99 | 1013.5 |
| 20260509052735 | 47 | 203 | 0.0 | 0.0 | 0.00 | 0.00 | 0.00 | 99 | 1013.5 |
| 20260509052136 | 47 | 225 | 0.0 | 0.0 | 0.00 | 0.00 | 0.00 | 99 | 1013.5 |
| 20260509051536 | 48 | 225 | 0.0 | 0.0 | 0.00 | 0.00 | 0.00 | 99 | 1013.5 |
| 20260509050939 | 48 | 203 | 0.0 | 0.0 | 0.00 | 0.00 | 0.00 | 99 | 1013.5 |
| 20260509045724 | 48 | 225 | 0.0 | 0.0 | 0.00 | 0.00 | 0.00 | 98 | 1013.5 |
| 20260509045135 | 49 | 225 | 0.0 | 0.0 | 0.00 | 0.00 | 0.00 | 99 | 1013.5 |
| 20260509044542 | 49 | 270 | 0.0 | 0.0 | 0.00 | 0.00 | 0.00 | 99 | 1013.5 |
| 20260509043947 | 49 | 315 | 0.0 | 0.0 | 0.00 | 0.00 | 0.00 | 98 | 1013.5 |
| 20260509043336 | 50 | 293 | 0.0 | 0.0 | 0.00 | 0.00 | 0.00 | 97 | 1013.5 |
| 20260509042740 | 50 | 248 | 0.0 | 0.0 | 0.00 | 0.00 | 0.00 | 97 | 1013.5 |
| 20260509042147 | 50 | 270 | 0.0 | 0.0 | 0.00 | 0.00 | 0.00 | 95 | 1013.5 |
| 20260509041539 | 50 | 248 | 0.0 | 0.0 | 0.00 | 0.00 | 0.00 | 94 | 1013.5 |
| 20260509040310 | 51 | 248 | 0.0 | 0.0 | 0.00 | 0.00 | 0.00 | 94 | 1013.8 |
| 20260509035750 | 51 | 203 | 0.0 | 0.0 | 0.00 | 0.00 | 0.00 | 93 | 1013.5 |
| 20260509035153 | 52 | 225 | 0.0 | 0.0 | 0.00 | 0.00 | 0.00 | 92 | 1013.8 |
| 20260509034542 | 52 | 225 | 0.0 | 0.0 | 0.00 | 0.00 | 0.00 | 91 | 1013.8 |
| 20260509033926 | 52 | 203 | 0.0 | 0.0 | 0.00 | 0.00 | 0.00 | 91 | 1013.8 |
| 20260509033318 | 52 | 203 | 0.0 | 0.0 | 0.00 | 0.00 | 0.00 | 89 | 1013.8 |
| 20260509031510 | 53 | 203 | 0.0 | 0.0 | 0.00 | 0.00 | 0.00 | 87 | 1013.8 |
| 20260509030315 | 54 | 180 | 0.0 | 0.0 | 0.00 | 0.00 | 0.00 | 85 | 1013.8 |
| 20260509025711 | 54 | 270 | 0.0 | 0.0 | 0.00 | 0.00 | 0.00 | 84 | 1013.8 |
| 20260509025140 | 55 | 203 | 0.0 | 1.7 | 0.00 | 0.00 | 0.00 | 84 | 1013.8 |
| 20260509024550 | 55 | 270 | 0.0 | 0.0 | 0.00 | 0.00 | 0.00 | 85 | 1013.8 |
| 20260509023918 | 55 | 203 | 0.9 | 0.9 | 0.00 | 0.00 | 0.00 | 85 | 1014.2 |
| 20260509023313 | 55 | 293 | 0.0 | 0.0 | 0.00 | 0.00 | 0.00 | 85 | 1014.2 |
| 20260509022717 | 55 | 203 | 0.0 | 1.7 | 0.00 | 0.00 | 0.00 | 85 | 1014.2 |
| 20260509021510 | 55 | 225 | 0.0 | 0.0 | 0.00 | 0.00 | 0.00 | 83 | 1014.2 |
| 20260509020909 | 55 | 225 | 0.0 | 0.0 | 0.00 | 0.00 | 0.00 | 80 | 1013.8 |
| 20260509020312 | 56 | 225 | 0.0 | 0.0 | 0.00 | 0.00 | 0.00 | 80 | 1013.8 |
| 20260509015739 | 56 | 225 | 0.0 | 0.0 | 0.00 | 0.00 | 0.00 | 80 | 1013.8 |
| 20260509015127 | 56 | 270 | 0.0 | 0.0 | 0.00 | 0.00 | 0.00 | 81 | 1013.8 |
| 20260509014516 | 56 | 225 | 0.0 | 0.0 | 0.00 | 0.00 | 0.00 | 81 | 1013.8 |
| 20260509013934 | 56 | 180 | 0.0 | 1.7 | 0.00 | 0.00 | 0.00 | 81 | 1013.8 |
| 20260509013344 | 56 | 203 | 0.9 | 1.7 | 0.00 | 0.00 | 0.00 | 80 | 1013.8 |
| 20260509012746 | 56 | 203 | 0.0 | 1.7 | 0.00 | 0.00 | 0.00 | 79 | 1013.5 |
| 20260509012113 | 57 | 180 | 0.0 | 0.0 | 0.00 | 0.00 | 0.00 | 78 | 1013.5 |
| 20260509010930 | 57 | 248 | 0.0 | 2.6 | 0.00 | 0.00 | 0.00 | 74 | 1013.5 |
| 20260509010308 | 57 | 180 | 0.9 | 1.7 | 0.00 | 0.00 | 0.00 | 74 | 1013.5 |
| 20260509005746 | 58 | 203 | 1.7 | 1.7 | 0.00 | 0.00 | 0.00 | 73 | 1013.5 |
| 20260509005138 | 59 | 203 | 0.0 | 0.0 | 0.00 | 0.00 | 0.00 | 70 | 1013.2 |
| 20260509004522 | 59 | 248 | 0.9 | 0.9 | 0.00 | 0.00 | 0.00 | 71 | 1013.5 |
| 20260509003315 | 60 | 203 | 0.0 | 0.0 | 0.00 | 0.00 | 0.00 | 68 | 1013.2 |
| 20260509002713 | 62 | 203 | 0.0 | 0.0 | 0.00 | 0.00 | 0.00 | 65 | 1013.5 |
| 20260509002119 | 62 | 225 | 1.7 | 1.7 | 0.00 | 0.00 | 0.00 | 63 | 1013.2 |
| 20260509001537 | 63 | 203 | 0.0 | 0.0 | 0.00 | 0.00 | 0.00 | 61 | 1013.5 |
| 20260509000941 | 64 | 225 | 0.9 | 1.7 | 0.00 | 0.00 | 0.00 | 57 | 1013.5 |
| 20260509000311 | 65 | 113 | 0.0 | 2.6 | 0.00 | 0.00 | 0.00 | 57 | 1013.5 |
| 20260508235713 | 66 | 225 | 0.0 | 1.7 | 0.00 | 0.00 | 0.00 | 57 | 1013.5 |
| 20260508235117 | 66 | 203 | 0.9 | 2.6 | 0.00 | 0.00 | 0.00 | 55 | 1013.5 |
| 20260508234534 | 67 | 270 | 1.7 | 1.7 | 0.00 | 0.00 | 0.00 | 51 | 1013.5 |
| 20260508233914 | 70 | 225 | 0.9 | 2.6 | 0.00 | 0.00 | 0.00 | 49 | 1013.5 |
| 20260508233309 | 73 | 180 | 3.5 | 3.5 | 0.00 | 0.00 | 0.00 | 43 | 1013.8 |
| 20260508232725 | 74 | 248 | 0.0 | 3.5 | 0.00 | 0.00 | 0.00 | 38 | 1013.8 |
| 20260508232135 | 75 | 225 | 3.5 | 3.5 | 0.00 | 0.00 | 0.00 | 38 | 1013.5 |
| 20260508231513 | 76 | 45 | 0.9 | 3.5 | 0.00 | 0.00 | 0.00 | 38 | 1013.5 |
| 20260508230947 | 76 | 0 | 3.5 | 3.5 | 0.00 | 0.00 | 0.00 | 38 | 1013.5 |
| 20260508230323 | 74 | 0 | 1.7 | 3.5 | 0.00 | 0.00 | 0.00 | 38 | 1013.5 |
| 20260508225749 | 73 | 0 | 0.0 | 1.7 | 0.00 | 0.00 | 0.00 | 40 | 1013.5 |
| 20260508225148 | 74 | 338 | 4.3 | 4.3 | 0.00 | 0.00 | 0.00 | 39 | 1013.5 |
| 20260508224518 | 74 | 315 | 2.6 | 2.6 | 0.00 | 0.00 | 0.00 | 38 | 1013.5 |
| 20260508223947 | 74 | 90 | 3.5 | 3.5 | 0.00 | 0.00 | 0.00 | 39 | 1013.5 |
| 20260508223318 | 74 | 315 | 1.7 | 3.5 | 0.00 | 0.00 | 0.00 | 40 | 1013.5 |
| 20260508222127 | 74 | 315 | 2.6 | 3.5 | 0.00 | 0.00 | 0.00 | 39 | 1013.5 |
| 20260508221541 | 74 | 248 | 2.6 | 2.6 | 0.00 | 0.00 | 0.00 | 41 | 1013.5 |
| 20260508220935 | 74 | 180 | 2.6 | 3.5 | 0.00 | 0.00 | 0.00 | 40 | 1013.5 |
| 20260508220310 | 74 | 68 | 1.7 | 3.5 | 0.00 | 0.00 | 0.00 | 39 | 1013.5 |
| 20260508215732 | 74 | 23 | 2.6 | 4.3 | 0.00 | 0.00 | 0.00 | 38 | 1013.5 |
| 20260508214546 | 75 | 0 | 6.1 | 6.1 | 0.00 | 0.00 | 0.00 | 38 | 1013.5 |
| 20260508213913 | 74 | 338 | 4.3 | 4.3 | 0.00 | 0.00 | 0.00 | 39 | 1013.5 |
| 20260508212116 | 75 | 0 | 6.1 | 6.1 | 0.00 | 0.00 | 0.00 | 40 | 1013.5 |
| 20260508211515 | 75 | 23 | 3.5 | 3.5 | 0.00 | 0.00 | 0.00 | 41 | 1013.5 |
| 20260508210918 | 75 | 23 | 5.2 | 6.1 | 0.00 | 0.00 | 0.00 | 40 | 1013.5 |
| 20260508210319 | 73 | 23 | 2.6 | 4.3 | 0.00 | 0.00 | 0.00 | 41 | 1013.8 |
| 20260508205739 | 74 | 0 | 4.3 | 4.3 | 0.00 | 0.00 | 0.00 | 41 | 1013.8 |
| 20260508205124 | 74 | 248 | 3.5 | 3.5 | 0.00 | 0.00 | 0.00 | 41 | 1013.8 |
| 20260508204551 | 75 | 203 | 1.7 | 2.6 | 0.00 | 0.00 | 0.00 | 40 | 1014.2 |
| 20260508203919 | 74 | 203 | 0.9 | 4.3 | 0.00 | 0.00 | 0.00 | 39 | 1014.2 |
| 20260508203320 | 74 | 203 | 3.5 | 3.5 | 0.00 | 0.00 | 0.00 | 40 | 1014.5 |
| 20260508202734 | 74 | 68 | 2.6 | 4.3 | 0.00 | 0.00 | 0.00 | 41 | 1014.5 |
| 20260508202114 | 75 | 225 | 2.6 | 4.3 | 0.00 | 0.00 | 0.00 | 38 | 1014.5 |
| 20260508201518 | 75 | 0 | 2.6 | 2.6 | 0.00 | 0.00 | 0.00 | 39 | 1014.9 |
| 20260508200949 | 74 | 203 | 1.7 | 6.1 | 0.00 | 0.00 | 0.00 | 39 | 1014.9 |
| 20260508200343 | 74 | 23 | 1.7 | 7.0 | 0.00 | 0.00 | 0.00 | 39 | 1014.9 |
| 20260508195740 | 74 | 90 | 3.5 | 3.5 | 0.00 | 0.00 | 0.00 | 38 | 1015.2 |
| 20260508195133 | 74 | 203 | 3.5 | 6.1 | 0.00 | 0.00 | 0.00 | 40 | 1015.2 |